Simultaneous Nadir Overpasses (SNOs) Predictions

Prediction of SNOs between AURA and NPP Satellite Orbit:

Table of predicted SNOs for the next 14.0 days since TLE Epoch: 9/5/2015
Index Date (AURA) Time (AURA) Lat,Lon (AURA) SZA (AURA ) Date (NPP) Time (NPP) Lat,Lon (NPP) SZA (NPP ) Distance(km) Time Diff (sec)
1 09/06/2015 01:13:35 -78.67,-126.70 93.01 09/06/2015 01:13:09 -78.67,-126.72 92.99 0.36 26
2 09/06/2015 02:02:52 79.03, 42.98 86.53 09/06/2015 02:03:44 79.02, 42.90 86.50 1.83 52
3 09/08/2015 17:29:59 -78.85, -9.83 92.31 09/08/2015 17:29:55 -78.85, -9.77 92.32 1.60 4
4 09/08/2015 18:19:00 79.80, 164.11 86.36 09/08/2015 18:20:14 79.73, 164.23 86.29 8.48 74
5 09/11/2015 08:57:09 78.50, -63.49 89.10 09/11/2015 08:56:11 78.49, -63.51 89.15 0.53 58
6 09/11/2015 09:46:27 -78.89, 106.29 91.41 09/11/2015 09:46:46 -78.88, 106.23 91.41 1.57 19
7 09/14/2015 01:13:36 78.57, 52.78 89.96 09/14/2015 01:13:01 78.56, 52.67 90.01 2.62 35
8 09/14/2015 02:02:50 -79.12,-136.44 90.77 09/14/2015 02:03:31 -79.13,-136.31 90.82 2.72 41
9 09/16/2015 17:29:58 78.84, 170.15 90.57 09/16/2015 17:29:45 78.85, 170.26 90.56 2.68 13
10 09/16/2015 18:19:17 -79.18, -20.18 89.88 09/16/2015 18:20:21 -79.19, -20.10 89.95 1.90 64
11 09/19/2015 08:57:10 -78.41, 116.08 87.92 09/19/2015 08:56:03 -78.41, 116.01 87.85 1.81 67




NCC Satellite Simultaneous Nadir Overpasses (SNOs) Prediction Service
